Location: Chandrammap?lem
(16.9200°N, 81.0051°E)
Time: 21:48:14
(UTC+00:00)

Cosmos 2219 - Pass Details

Date: 29 May 2024
Orbit: 834 x 858 km, 71.1° (Epoch: 14 June)

Event Time Altitude Azimuth Distance (km) Brightness Sun altitude
Exits shadow 22:53:47 22° 260° (W) 1,787 4.3 -15.5°
Maximum altitude 22:55:44 26° 290° (WNW) 1,604 4.3 -15.0°
Drops below altitude 10° 23:00:22 10° 346° (NNW) 2,456 5.8 -14.1°
Sets 23:03:13 0° 359° (N) 3,387 6.7 -13.5°
